Date,TemperatureHighF,TemperatureAvgF,TemperatureLowF,DewpointHighF,DewpointAvgF,DewpointLowF,HumidityHigh,HumidityAvg,HumidityLow,PressureMaxIn,PressureMinIn,WindSpeedMaxMPH,WindSpeedAvgMPH,GustSpeedMaxMPH,PrecipitationSumIn
2013-1-24,20.5,16.5,13.0,10.3,3.6,-0.7,87,58,42,30.28,30.02,0,0,0,0.06
2013-1-25,20.0,17.0,14.0,13.3,6.5,-0.7,81,64,51,30.26,29.82,0,0,0,0.00
2013-1-26,29.3,24.8,19.8,23.4,18.8,13.1,88,78,70,30.21,29.83,0,0,0,0.00
2013-1-27,33.3,26.6,20.9,22.1,17.0,12.0,72,67,61,30.35,30.20,0,0,0,0.00
2013-1-28,52.9,38.9,28.1,45.5,33.2,21.3,89,80,71,30.22,29.91,8,1,8,0.12
2013-1-29,64.6,57.2,51.7,53.3,49.4,45.4,84,75,65,29.99,29.83,8,2,8,0.00
2013-1-30,63.7,55.6,51.5,58.8,51.9,46.0,92,88,76,29.83,29.16,10,2,10,2.42
2013-1-31,55.3,36.3,27.0,52.9,23.6,12.3,94,60,46,29.71,29.09,17,4,17,0.09
2013-2-1,28.6,20.1,13.3,21.1,7.2,0.0,86,58,43,30.13,29.62,18,4,18,0.01
2013-2-2,27.0,20.2,13.7,20.7,10.0,1.5,81,64,56,30.13,29.80,8,1,8,0.00
2013-2-3,32.0,27.9,24.5,26.0,21.3,9.4,83,76,52,29.80,29.62,11,2,20,0.00
2013-2-4,33.5,27.0,19.8,23.9,15.1,8.8,68,61,53,29.88,29.70,15,3,15,0.00
2013-2-5,40.3,36.5,33.5,31.2,28.6,23.9,78,73,68,29.77,29.66,4,1,4,0.00
2013-2-6,39.2,35.2,29.7,31.0,26.4,21.8,82,71,55,30.14,29.76,10,2,10,0.00
2013-2-7,34.9,31.5,28.1,25.5,22.8,20.9,78,70,63,30.20,29.99,8,2,8,0.00
2013-2-8,36.5,32.0,28.4,32.3,26.8,19.3,93,81,66,29.99,29.62,20,3,20,0.09
2013-2-9,34.2,29.2,25.4,19.8,15.8,12.0,72,58,42,30.19,29.79,21,6,21,0.00
2013-2-10,38.5,32.5,25.9,23.4,16.9,12.6,60,53,45,30.22,29.99,9,2,9,0.01
2013-2-11,58.9,46.7,32.6,47.0,34.8,19.4,93,68,25,30.00,29.59,13,3,13,0.05
2013-2-12,49.9,43.5,39.1,25.4,23.5,21.4,53,46,35,29.83,29.69,13,4,13,0.00
2013-2-13,40.7,35.2,30.6,29.4,26.1,20.6,94,70,47,29.78,29.50,6,2,8,0.00
2013-2-14,42.8,35.6,29.3,30.6,26.9,23.9,94,71,56,29.83,29.61,6,2,7,0.14
2013-2-15,50.0,40.0,31.5,35.3,30.1,25.2,93,69,47,29.86,29.75,8,2,8,0.06
2013-2-16,33.5,30.2,23.4,30.3,23.5,11.2,89,76,60,29.82,29.67,13,2,13,0.00
2013-2-17,23.4,21.8,20.5,12.6,11.9,11.2,70,66,59,29.68,29.67,11,4,11,0.00
2013-2-18,38.2,33.1,19.3,21.7,14.8,6.6,58,47,39,30.13,29.92,8,2,8,0.00
2013-2-19,43.9,37.0,32.0,36.7,26.7,17.3,84,67,47,29.92,29.55,13,3,13,0.01
2013-2-20,32.2,26.3,20.2,19.8,12.4,9.8,65,56,44,29.94,29.66,15,5,15,0.00
2013-2-21,31.3,22.8,18.0,15.4,11.2,7.9,66,61,50,30.12,29.90,12,4,12,0.00
2013-2-22,28.8,26.7,24.5,25.1,18.3,13.7,86,71,62,30.15,29.95,7,1,7,0.00
2013-2-23,46.1,36.2,28.8,40.0,31.9,25.0,91,84,79,29.96,29.66,6,1,6,0.02
2013-2-24,44.3,35.9,27.4,35.1,26.9,15.8,95,72,39,29.94,29.64,16,4,16,0.00
2013-2-25,40.0,32.2,25.9,22.2,19.3,15.7,70,59,46,30.02,29.93,6,2,8,0.00
2013-2-26,37.8,33.8,31.3,36.2,27.3,18.7,94,78,56,30.00,29.48,9,1,9,0.81
2013-2-27,48.1,40.5,34.0,37.7,32.7,29.7,95,76,52,29.56,29.42,12,2,12,0.02
2013-2-28,39.8,36.6,33.7,32.1,26.2,23.0,76,66,55,29.58,29.48,12,3,12,0.00
2013-3-1,35.6,33.0,28.6,26.3,23.9,21.1,75,69,62,29.73,29.58,10,4,10,0.00
2013-3-2,30.4,27.4,24.8,21.1,19.0,16.4,82,71,63,29.72,29.64,12,5,12,0.00
2013-3-3,31.7,27.4,24.8,19.2,15.8,14.1,75,62,51,29.75,29.65,15,5,15,0.00
2013-3-4,37.8,27.6,21.1,15.3,13.1,10.1,67,55,35,29.86,29.74,12,5,12,0.00
2013-3-5,46.6,37.6,30.6,28.1,17.9,13.4,88,46,32,29.87,29.58,10,2,10,0.00
2013-3-6,34.6,30.9,29.2,31.3,28.5,26.6,95,91,75,29.85,29.47,14,4,14,0.00
2013-3-7,38.7,35.0,32.8,27.4,25.8,23.8,79,69,56,30.00,29.85,16,6,16,0.11
2013-3-8,37.8,33.5,30.1,27.1,24.9,22.3,80,71,62,30.14,29.97,17,7,17,0.00
2013-3-9,49.9,39.0,31.7,26.3,24.1,22.8,70,56,38,30.18,30.09,6,3,6,0.00
2013-3-10,55.1,48.5,41.0,29.2,25.9,22.5,52,42,35,30.12,30.01,7,2,8,0.00
2013-3-11,51.5,45.2,38.2,45.5,33.8,22.3,87,65,41,30.01,29.71,10,2,10,0.01
2013-3-12,49.9,45.4,35.6,47.4,39.8,27.2,94,81,59,29.79,29.59,13,3,13,0.50
2013-3-13,35.6,35.4,34.9,27.2,25.1,23.2,71,66,62,29.80,29.77,10,4,10,0.00
2013-3-17,33.1,32.5,31.7,25.7,24.9,24.0,77,73,71,30.05,30.01,3,1,3,0.00
2013-3-18,32.8,31.3,29.7,30.4,27.4,24.0,92,85,73,30.05,29.70,4,1,4,0.00
2013-3-19,52.0,39.9,31.0,35.9,24.1,5.4,94,61,21,29.76,29.57,17,2,17,0.37
2013-3-20,40.9,34.2,30.8,27.0,11.4,5.6,80,40,27,29.80,29.62,15,3,15,0.00
2013-3-21,31.3,26.4,23.4,25.4,13.4,7.2,83,59,40,29.70,29.58,10,5,16,0.00
2013-3-22,41.4,30.9,23.6,17.4,12.9,8.1,58,48,37,29.78,29.68,12,4,12,0.00
2013-3-23,48.1,39.0,29.3,20.2,17.5,15.0,57,43,27,29.85,29.75,10,3,10,0.00
2013-3-24,37.1,32.9,29.3,26.5,20.7,16.9,88,62,50,29.82,29.45,6,1,6,0.00
2013-3-25,34.2,31.4,29.2,30.3,27.9,25.5,90,87,82,29.53,29.34,4,0,4,0.05
2013-3-26,40.0,35.3,31.3,28.4,26.6,24.2,84,71,56,29.85,29.53,13,3,13,0.19
2013-3-27,37.6,33.8,32.0,26.3,24.2,21.7,72,68,60,29.91,29.83,10,3,10,0.01
2013-3-28,41.2,37.2,34.2,27.9,25.5,23.2,68,62,56,30.05,29.91,13,4,14,0.00
2013-3-29,49.1,42.1,36.2,30.3,26.3,22.3,70,55,35,30.07,29.98,10,3,10,0.00
2013-3-30,54.0,42.3,38.5,28.2,24.4,22.0,56,50,29,30.06,29.94,8,2,8,0.00
2013-3-31,49.3,47.0,41.8,44.3,40.7,30.9,86,79,65,29.80,29.60,5,1,5,0.06
2013-4-1,56.9,46.0,36.4,40.6,33.0,16.9,78,61,39,29.81,29.60,15,4,16,0.00
2013-4-2,43.2,36.5,30.2,17.5,12.0,5.7,49,37,24,29.99,29.81,11,4,11,0.00
2013-4-3,45.4,36.4,30.2,16.4,12.2,7.1,53,38,22,30.17,29.98,14,4,14,0.00
2013-4-4,45.0,35.4,27.0,26.1,13.4,8.4,68,41,25,30.18,29.86,7,2,8,0.06
2013-4-5,58.9,45.3,34.2,33.5,27.5,21.0,86,54,27,29.91,29.70,13,4,13,0.03
2013-4-6,53.5,42.3,32.0,23.2,19.0,14.1,61,41,24,30.12,29.91,12,3,12,0.00
2013-4-7,66.1,50.4,36.7,41.7,33.7,23.0,72,54,39,30.04,29.83,10,3,10,0.00
2013-4-8,76.5,65.8,56.2,47.0,43.1,39.7,56,45,33,29.95,29.82,8,2,8,0.00
2013-4-9,82.1,72.1,64.1,52.5,49.4,46.4,54,45,33,29.98,29.83,9,2,9,0.00
2013-4-10,87.3,77.2,69.3,54.7,50.7,44.7,50,40,30,29.88,29.71,9,2,10,0.00
2013-4-11,83.3,72.6,61.7,57.7,53.2,48.6,71,51,37,29.80,29.63,11,2,11,0.00
2013-4-12,76.0,62.2,50.8,61.3,53.5,38.3,92,75,34,29.65,29.47,14,3,14,0.00
2013-4-13,66.1,55.1,46.6,38.8,32.4,22.6,64,44,23,29.82,29.65,11,3,11,0.00
2013-4-14,65.9,54.2,43.4,40.2,34.0,24.6,65,47,32,29.98,29.82,7,2,7,0.00
2013-4-15,60.5,54.2,50.0,49.8,44.6,38.3,89,71,54,30.10,29.94,8,2,8,0.00
2013-4-16,69.5,58.6,49.9,58.7,53.2,46.5,94,83,67,30.11,29.96,8,2,8,0.00
2013-4-17,71.3,63.6,58.3,59.8,56.7,53.6,88,79,65,30.09,29.98,10,2,10,0.00
2013-4-18,72.9,62.3,56.2,62.0,56.1,53.3,92,81,62,30.06,29.83,11,2,11,0.00
2013-4-19,70.2,62.1,49.0,62.8,56.8,37.5,92,83,66,29.83,29.50,11,2,11,0.00
2013-4-20,54.4,46.8,40.1,38.9,26.9,21.9,71,47,31,30.17,29.65,12,4,12,0.00
2013-4-21,49.0,41.3,33.1,24.9,23.0,20.1,63,49,35,30.37,30.17,10,3,10,0.00
2013-4-22,53.5,44.0,37.1,33.6,29.6,22.6,71,57,46,30.34,30.19,9,2,9,0.00
2013-4-23,43.2,40.6,39.1,36.0,32.8,31.5,80,74,67,30.19,30.09,4,1,4,0.00
2013-4-24,74.0,62.2,47.5,54.4,48.9,40.1,82,63,45,29.88,29.66,13,2,13,0.00
2013-4-25,62.5,50.1,39.2,41.8,29.7,16.7,71,49,20,30.15,29.87,15,3,15,0.00
2013-4-26,61.7,53.3,43.0,35.5,31.3,24.9,67,44,34,30.28,30.13,7,2,7,0.00
2013-4-27,68.8,58.2,48.6,41.0,36.7,30.8,61,45,35,30.22,30.10,6,1,6,0.00
2013-4-28,55.1,51.0,49.1,45.9,42.1,37.0,88,72,52,30.10,29.94,6,2,6,0.00
2013-4-29,58.0,52.3,48.6,54.5,49.4,44.5,93,90,79,29.96,29.86,8,1,8,0.00
2013-4-30,56.9,52.8,49.9,53.9,50.5,45.8,95,92,86,30.12,29.93,5,1,5,0.00
2013-5-1,66.4,56.3,49.0,45.8,40.6,33.4,86,59,32,30.24,30.12,8,1,8,0.00
2013-5-2,65.2,55.0,46.1,45.5,41.4,37.1,78,61,42,30.24,30.15,8,1,8,0.00
2013-5-3,65.9,55.1,47.2,47.1,43.7,39.6,87,67,42,30.20,30.11,7,1,7,0.00
2013-5-5,57.4,52.6,49.5,41.1,40.4,39.5,73,64,53,30.00,29.97,2,1,2,0.00
2013-5-6,54.7,49.5,45.4,53.3,46.8,41.3,95,90,74,29.99,29.88,4,1,4,0.00
2013-5-7,57.4,55.4,53.1,56.3,54.2,51.7,96,96,95,29.88,29.76,4,2,4,0.00
2013-5-8,63.2,54.9,50.8,55.8,51.6,48.3,96,89,73,29.86,29.79,2,1,2,0.00
2013-5-9,70.6,60.9,51.8,55.3,51.9,48.1,88,73,55,29.91,29.77,9,2,9,0.00
2013-5-10,79.6,68.6,61.4,59.6,54.8,50.8,85,62,47,29.90,29.75,6,2,6,0.00
2013-5-11,72.7,65.4,61.0,59.5,56.9,53.2,87,74,60,29.76,29.63,3,1,3,0.00
2013-5-12,61.6,54.1,47.5,52.8,35.5,25.5,74,51,32,29.87,29.65,8,2,8,0.00
2013-5-13,52.4,47.2,42.5,29.2,26.7,22.1,55,45,32,29.99,29.86,5,2,5,0.00
2013-5-14,60.5,49.8,40.3,37.3,31.5,27.3,66,50,36,30.03,29.87,5,1,5,0.00
2013-5-15,86.4,79.5,65.9,62.7,55.5,48.6,68,45,29,29.77,29.61,6,1,6,0.00
2013-5-16,76.7,71.8,66.6,60.0,54.1,48.3,67,54,38,29.85,29.68,9,2,9,0.00
2013-5-17,77.6,69.3,61.6,59.0,54.6,51.8,75,60,46,29.99,29.83,4,1,4,0.00
2013-5-18,68.6,60.4,57.6,56.5,54.5,52.2,91,81,58,30.06,29.97,0,0,0,0.00
2013-5-19,65.0,60.7,56.3,62.1,57.8,53.9,94,90,86,30.04,29.95,0,0,0,0.00
2013-5-20,75.6,68.3,61.9,68.0,63.8,59.6,93,86,75,29.98,29.87,0,0,0,0.00
2013-5-21,80.6,72.2,65.5,70.2,65.6,60.8,87,80,69,29.88,29.78,0,0,0,0.00
2013-5-25,58.3,53.3,42.1,35.5,34.1,31.5,70,49,39,30.04,29.97,0,0,0,0.00
2013-5-26,60.1,50.3,46.6,35.6,32.7,28.3,58,51,31,30.07,30.01,0,0,0,0.00
2013-6-12,81.7,77.3,70.2,68.1,65.8,61.8,75,68,59,29.79,29.71,4,1,4,0.00
2013-6-13,74.9,69.3,62.5,68.4,63.2,54.0,90,81,74,29.72,29.43,8,2,8,0.00
2013-6-14,71.5,64.2,57.1,54.6,52.0,49.6,80,65,49,29.90,29.55,9,2,9,0.00
2013-6-15,75.4,68.3,62.3,58.2,54.1,50.2,75,61,47,29.98,29.89,5,1,5,0.00
2013-6-16,75.8,70.7,65.9,65.5,58.6,50.0,74,65,56,29.93,29.80,5,1,5,0.00
2013-6-17,80.1,73.2,68.4,67.2,63.5,59.1,86,72,62,29.87,29.80,4,1,4,0.00
2013-6-18,69.1,67.4,65.2,65.4,63.5,61.2,92,87,83,29.83,29.70,4,1,4,0.00
2013-6-19,70.0,64.5,59.4,62.8,60.4,57.5,95,87,75,30.02,29.79,4,1,4,0.00
2013-6-20,72.7,66.8,63.0,64.3,61.3,56.7,91,83,71,30.13,30.02,3,1,4,0.00
2013-6-21,76.0,68.6,61.6,62.7,57.4,51.9,77,68,62,30.16,30.09,4,1,4,0.00
2013-6-22,79.2,71.2,63.0,68.1,63.0,56.4,85,76,67,30.13,30.02,4,1,4,0.00
2013-6-23,80.6,73.0,66.6,69.8,66.1,62.3,90,79,62,30.07,29.98,4,1,4,0.00
2013-6-24,83.2,74.9,71.6,69.7,66.1,61.4,81,74,61,30.05,29.94,3,1,3,0.00
2013-6-25,84.6,77.1,71.6,71.0,66.7,61.2,78,70,59,29.96,29.83,5,1,5,0.00
2013-6-26,81.2,74.4,68.9,71.3,66.4,60.9,82,76,67,29.84,29.75,5,1,5,0.00
2013-6-27,76.7,72.7,70.4,70.4,66.8,63.9,89,81,78,29.75,29.55,4,1,4,0.00
2013-6-28,82.6,73.4,69.5,71.3,64.6,57.2,82,74,65,29.57,29.43,8,1,8,0.00
2013-6-29,80.1,72.5,67.3,64.3,60.3,56.2,83,66,51,29.63,29.45,5,1,5,0.00
2013-6-30,80.8,73.0,68.0,71.5,66.8,62.7,88,81,71,29.75,29.60,4,1,4,0.00
2013-7-1,75.6,71.0,68.4,70.7,67.0,64.7,91,87,82,29.86,29.73,4,1,4,0.00
2013-7-2,74.9,71.0,68.6,70.5,67.8,66.0,92,90,85,30.04,29.86,4,1,4,0.00
2013-7-3,77.8,71.5,68.4,72.9,68.7,66.2,94,91,84,30.11,30.02,5,1,5,0.00
2013-7-4,81.0,74.7,69.5,74.2,70.0,67.3,94,86,75,30.14,30.06,5,1,5,0.00
2013-7-5,82.3,76.0,70.4,74.2,69.8,66.2,89,81,71,30.12,30.02,5,1,5,0.00
2013-7-6,84.6,77.2,71.8,73.5,69.0,65.0,81,76,68,30.09,29.98,4,1,4,0.00
2013-7-7,82.8,74.1,68.8,74.8,67.9,64.1,88,81,75,30.01,29.91,5,1,5,0.00
2013-7-8,79.0,73.0,67.7,67.6,65.6,63.2,88,78,65,30.02,29.96,6,1,6,0.00
2013-7-9,79.4,74.5,71.5,71.4,67.6,64.3,83,79,76,30.01,29.92,3,1,3,0.00
2013-7-10,79.7,75.2,73.1,72.3,68.7,66.0,84,80,77,29.92,29.79,4,1,4,0.00
2013-7-11,76.7,72.8,69.1,68.1,66.2,63.3,91,80,73,29.85,29.76,5,1,5,0.00
2013-7-12,70.7,64.3,62.1,65.4,62.1,59.9,94,93,83,29.96,29.82,5,1,5,0.01
2013-7-13,75.6,69.7,64.4,70.3,66.4,62.7,95,90,82,30.15,29.94,3,0,3,0.00
2013-7-14,80.8,74.7,69.8,72.1,69.5,67.5,94,84,71,30.23,30.14,4,0,4,0.00
2013-7-15,84.4,77.3,71.5,72.7,69.7,66.9,87,78,65,30.22,30.12,0,0,0,0.00
2013-7-16,85.0,79.5,76.1,74.6,70.2,67.0,82,73,67,30.18,30.10,0,0,0,0.00
2013-7-17,85.3,79.6,75.6,74.3,70.7,66.6,82,74,65,30.15,30.03,0,0,0,0.00
2013-7-18,86.9,80.8,76.9,76.1,72.6,69.7,81,76,66,30.05,29.95,0,0,0,0.00
2013-7-19,87.8,80.0,75.4,76.2,71.3,65.2,83,75,67,29.95,29.78,0,0,0,0.00
2013-7-20,84.4,78.4,74.9,72.8,68.9,65.3,79,73,65,29.83,29.74,0,0,0,0.00
2013-7-21,82.1,74.0,69.8,71.2,67.1,63.5,89,79,67,29.88,29.80,0,0,0,0.01
2013-7-22,80.3,73.5,69.5,73.5,68.7,65.1,91,85,77,29.85,29.67,0,0,0,0.00
2013-7-23,71.1,70.0,69.1,68.1,67.2,66.3,92,91,90,29.68,29.62,0,0,0,0.00
2013-9-30,66.8,63.9,61.6,56.7,55.2,54.3,79,74,65,29.93,29.86,0,0,0,0.00
2013-10-1,72.7,65.9,60.8,58.7,56.0,54.4,79,71,57,29.96,29.88,0,0,0,0.00
2013-10-2,75.4,68.5,63.5,61.2,57.8,55.3,76,69,58,29.98,29.91,0,0,0,0.00
2013-10-3,75.6,69.7,65.7,64.5,60.7,57.2,79,73,67,30.01,29.93,0,0,0,0.00
2013-10-4,77.4,70.6,66.2,64.5,61.3,58.6,78,73,62,29.99,29.92,0,0,0,0.00
2013-10-5,79.6,73.0,69.1,65.4,63.0,60.9,76,71,61,29.99,29.90,0,0,0,0.00
2013-10-6,79.0,73.3,68.8,65.8,62.9,61.0,82,70,58,29.92,29.77,0,0,0,0.00
2013-10-7,68.8,67.1,66.4,64.8,63.9,62.6,94,90,81,29.78,29.63,0,0,0,0.00
2013-10-14,59.6,55.3,51.7,55.5,52.8,50.2,96,91,84,30.17,30.08,0,0,0,0.00
2013-10-15,63.4,56.9,52.6,56.7,52.6,49.3,93,86,76,30.08,29.93,0,0,0,0.00
2013-10-16,65.7,60.2,55.3,59.8,55.7,49.7,89,85,77,29.93,29.77,0,0,0,0.00
2013-10-17,68.4,62.8,55.4,61.1,58.1,48.6,91,84,76,29.77,29.59,0,0,0,0.12
2013-10-18,58.0,52.8,47.2,48.5,42.4,37.8,80,68,54,29.86,29.71,0,0,0,0.00
2013-10-19,58.7,54.1,50.8,51.7,46.4,42.9,82,75,70,29.83,29.62,0,0,0,0.00
2013-10-20,54.0,48.1,42.3,42.7,35.5,32.5,71,62,50,29.92,29.73,0,0,0,0.00
2013-10-21,59.8,53.3,48.2,43.9,39.9,36.3,70,61,51,29.95,29.77,0,0,0,0.00
2013-10-22,58.3,53.6,46.3,48.0,42.3,31.4,77,66,54,29.77,29.67,0,0,0,0.00
2013-10-23,47.5,43.8,38.7,37.4,33.4,30.5,81,67,56,29.73,29.51,0,0,0,0.00
2013-10-24,44.5,39.9,37.1,31.8,28.7,24.3,76,64,47,29.94,29.73,0,0,0,0.00
2013-10-25,46.1,39.3,35.1,31.1,27.3,25.7,70,62,53,30.11,29.93,0,0,0,0.00
2013-10-26,50.2,42.7,36.2,30.7,27.9,24.8,66,56,45,30.09,29.75,0,0,0,0.00
2013-10-27,53.6,48.3,44.1,35.8,32.8,29.4,63,55,46,29.95,29.78,0,0,0,0.00
2013-10-28,56.7,49.3,44.1,40.2,36.1,31.6,69,60,53,30.09,29.94,0,0,0,0.00
2013-10-29,56.2,49.8,43.2,42.8,38.7,34.2,73,66,60,30.18,30.08,0,0,0,0.00
2013-10-30,63.2,56.2,51.3,53.0,47.5,40.9,84,72,66,30.12,29.97,0,0,0,0.00
2013-10-31,65.0,60.6,58.0,57.1,55.2,52.7,88,83,74,29.99,29.58,0,0,0,0.01
2013-11-1,67.9,62.5,58.0,59.8,52.4,43.4,90,71,49,29.58,29.43,0,0,0,0.16
2013-11-2,59.4,53.9,45.7,44.2,40.7,34.6,67,61,49,29.72,29.51,0,0,0,0.00
2013-11-3,48.8,45.0,40.0,37.5,29.4,19.3,78,56,33,30.21,29.71,0,0,0,0.00
2013-11-4,40.7,35.2,29.2,24.2,22.4,19.5,69,60,47,30.36,30.21,0,0,0,0.00
2013-11-5,49.9,42.5,35.6,43.7,31.8,23.1,83,66,57,30.37,30.22,0,0,0,0.00
2013-11-6,61.6,53.9,47.5,50.1,46.8,42.8,88,77,65,30.22,29.86,0,0,0,0.00
2013-11-7,58.3,50.6,38.7,51.6,42.0,22.2,92,73,52,29.89,29.71,0,0,0,0.08
2013-11-8,43.6,39.7,35.6,26.3,23.4,20.8,61,52,43,30.09,29.88,0,0,0,0.00
2013-11-9,48.4,42.1,35.1,29.9,26.7,23.4,65,55,42,30.09,29.83,0,0,0,0.00
2013-11-10,55.6,47.9,40.0,33.8,28.1,24.3,56,47,32,30.03,29.79,0,0,0,0.00
2013-11-11,52.4,44.3,37.8,30.2,27.1,24.1,62,51,41,30.07,29.89,0,0,0,0.00
2013-11-12,47.2,33.0,27.2,35.8,20.3,13.3,77,60,45,30.16,29.79,0,0,0,0.00
2013-11-13,35.5,30.3,25.6,17.6,15.5,11.4,70,55,41,30.23,30.12,0,0,0,0.00
2013-11-14,54.9,43.8,32.6,21.0,15.6,8.8,42,32,21,30.12,29.99,0,0,0,0.00
2013-11-15,57.2,50.0,44.5,38.3,21.8,14.1,72,34,21,30.05,29.96,0,0,0,0.02
2013-11-16,54.4,48.1,45.5,46.8,42.8,38.1,92,82,72,30.08,29.99,0,0,0,0.02
2013-11-17,57.2,53.0,48.1,55.5,50.6,45.6,94,92,90,30.00,29.53,0,0,0,0.07
2013-11-18,58.9,53.9,43.6,55.6,33.5,22.6,93,49,26,29.76,29.52,0,0,0,0.20
2013-11-19,43.6,36.9,32.8,26.0,24.1,22.6,67,60,49,30.13,29.75,0,0,0,0.00
2013-11-20,39.1,33.9,30.2,26.4,22.0,19.4,75,62,48,30.27,30.12,0,0,0,0.00
2013-11-21,45.9,39.7,32.4,41.4,33.7,25.8,87,79,72,30.28,30.11,0,0,0,0.00
2013-11-22,61.0,56.2,45.7,51.1,48.4,41.2,84,75,68,30.12,29.83,0,0,0,0.00
2013-11-23,50.4,37.8,24.1,44.5,25.3,12.0,81,62,38,29.96,29.82,0,0,0,0.00
2013-11-24,24.1,20.4,17.5,15.4,4.8,2.4,73,51,42,30.22,29.96,0,0,0,0.00
2013-11-25,31.5,24.9,18.0,13.3,8.5,4.2,58,50,40,30.22,30.03,0,0,0,0.00
2013-11-26,37.8,33.1,30.6,31.6,26.3,13.3,93,77,46,30.04,29.43,0,0,0,0.74
2013-11-27,34.9,32.6,30.1,33.3,30.0,24.9,94,90,79,29.49,29.36,0,0,0,0.00
2013-11-28,31.3,28.6,27.4,21.9,19.1,15.3,76,68,54,30.17,30.07,0,0,0,0.00
2013-11-29,33.3,29.5,25.7,21.5,19.4,17.5,75,66,58,30.41,30.16,0,0,0,0.00
2013-11-30,32.6,27.9,22.9,23.1,19.9,15.8,77,72,66,30.40,30.07,0,0,0,0.00
2013-12-1,45.7,38.1,29.3,32.9,27.1,21.9,74,65,54,30.07,29.77,0,0,0,0.00
2013-12-2,46.6,43.3,41.0,34.7,32.7,30.5,70,66,61,29.77,29.63,0,0,0,0.00
2013-12-3,49.3,43.2,37.6,38.1,34.4,30.2,77,71,64,29.76,29.64,0,0,0,0.00
2013-12-4,53.6,48.3,43.9,46.2,42.1,37.2,89,79,70,29.83,29.75,0,0,0,0.00
2013-12-5,61.2,55.3,49.0,55.8,51.7,45.9,93,88,79,29.83,29.73,0,0,0,0.00
2013-12-6,60.8,43.3,33.5,58.1,41.5,32.1,95,93,89,29.94,29.69,0,0,0,0.66
2013-12-7,34.0,30.9,25.4,32.1,26.5,18.7,95,84,70,30.25,29.88,0,0,0,0.00
2013-12-8,27.4,23.6,21.2,25.6,19.9,16.9,93,86,75,30.26,30.00,0,0,0,0.00
2013-12-9,37.4,33.1,26.8,35.3,30.9,24.9,93,92,87,30.02,29.76,0,0,0,0.04
2013-12-10,34.2,30.6,27.7,30.6,25.2,15.0,94,81,58,29.93,29.71,0,0,0,0.00
2013-12-11,33.5,27.9,23.4,20.0,16.9,13.4,66,63,49,30.09,29.92,0,0,0,0.00
2013-12-12,30.4,24.2,18.4,19.3,10.4,4.3,74,56,38,30.10,29.94,0,0,0,0.00
2013-12-13,36.4,30.5,23.6,21.3,14.8,9.7,59,52,43,30.02,29.91,0,0,0,0.00
2013-12-14,35.1,32.6,30.4,30.5,26.7,20.4,93,80,57,30.02,29.48,0,0,0,0.00
2013-12-15,38.9,34.1,30.2,34.1,27.3,20.9,94,77,62,29.68,29.38,0,0,0,0.02
2013-12-16,33.3,31.2,29.2,26.0,24.3,23.0,83,75,70,29.87,29.67,0,0,0,0.00
2013-12-17,40.7,34.3,28.4,33.3,28.8,24.3,85,80,71,29.83,29.66,0,0,0,0.02
2013-12-18,35.3,31.3,28.1,28.6,20.5,17.9,83,64,53,29.93,29.73,0,0,0,0.00
2013-12-19,52.4,44.2,32.0,31.2,26.5,18.6,60,50,40,29.90,29.83,0,0,0,0.00
2013-12-20,56.2,50.6,47.0,35.0,30.3,27.3,54,46,37,29.86,29.76,0,0,0,0.00
2013-12-21,55.4,55.3,55.1,44.6,44.0,43.5,67,66,65,29.77,29.76,0,0,0,0.00
2013-12-27,43.7,39.8,37.8,20.8,19.5,17.5,47,44,35,30.20,30.16,0,0,0,0.00
2013-12-28,51.7,44.5,37.8,25.2,23.0,19.8,54,43,33,30.17,29.97,0,0,0,0.00
2013-12-29,49.0,43.3,38.5,42.1,35.5,20.7,94,76,33,29.97,29.45,0,0,0,0.99
2013-12-30,43.6,36.1,28.1,36.5,29.3,21.5,79,76,72,29.99,29.70,0,0,0,0.00
2013-12-31,37.3,29.8,25.9,24.9,19.6,15.5,83,67,48,30.12,29.93,0,0,0,0.00
2014-1-1,42.1,35.1,28.4,27.0,22.2,16.8,62,59,54,30.20,29.92,0,0,0,0.00
2014-1-2,36.9,30.9,26.1,26.5,23.9,20.9,93,76,59,29.93,29.47,0,0,0,0.00